Weather History for Cedar Rapids, IA

Change the Weather History Date:

Sunday, November 18, 2012

  Actual Average Record
Temperature  
Mean Temperature 45 °F 36 °F  
Max Temperature 57 °F 45 °F 72 °F (1953)
Min Temperature 33 °F 27 °F 5 °F (1891)
Degree Days  
Heating Degree Days 20 29  
Month to date heating degree days 446 442  
Since 1 July heating degree days 1214 1052  
Cooling Degree Days 0 0  
Month to date cooling degree days 0 0  
Year to date cooling degree days 1052 748  
Moisture  
Dew Point 33 °F    
Average Humidity 65    
Maximum Humidity 89    
Minimum Humidity 40    
Precipitation  
Precipitation 0.00 in 0.07 in 1.18 in (1957)
Month to date precipitation 1.92 1.30  
Year to date precipitation 23.02 32.38  
Sea Level Pressure  
Sea Level Pressure 30.28 in    
Wind  
Wind Speed 10 mph (SSE)    
Max Wind Speed 16 mph    
Max Gust Speed 22 mph    
Visibility 8 miles    
Events      
T = Trace of Precipitation, MM = Missing Value Source: NWS Daily Summary

Daily Weather History Graph

Daily Weather History Graph

Search for Another Location

Airport:

Trip Planner

Search our weather history database for the weather conditions in past years. The results will help you decide how hot, cold, wet, or windy it might be!

Date:

Astronomy

Nov. 18, 2012 Rise Set
Actual Time 7:00 AM CST 4:43 PM CST
Civil Twilight 6:30 AM CST 5:13 PM CST
Nautical Twilight 5:56 AM CST 5:47 PM CST
Astronomical Twilight 5:23 AM CST 6:20 PM CST
Moon 11:26 AM CST (11/18) 10:04 PM CST (11/18)
Length of Visible Light 10h 42m
Length of Day
9h 42m
Waxing Crescent, 30% of the Moon is Illuminated
Nov 18
Waxing Crescent
Nov 20
First Quarter
Nov 28
Full
Dec 6
Last Quarter
Dec 13
New

Hourly Weather History & Observations

Time (CST) Temp. Windchill Dew Point Humidity Pressure Visibility Wind Dir Wind Speed Gust Speed Precip Events Conditions
12:52 AM 39.0 °F 31.8 °F 32.0 °F 76% 30.34 in 7.0 mi SSE 11.5 mph - N/A   Clear
1:52 AM 37.9 °F 30.9 °F 33.1 °F 83% 30.35 in 6.0 mi SSE 10.4 mph - N/A   Haze
2:52 AM 37.9 °F 30.5 °F 33.1 °F 83% 30.34 in 6.0 mi SSE 11.5 mph - N/A   Haze
3:52 AM 35.1 °F 28.6 °F 32.0 °F 89% 30.33 in 5.0 mi SSE 8.1 mph - N/A   Clear
4:52 AM 34.0 °F 27.2 °F 30.9 °F 89% 30.33 in 5.0 mi SSE 8.1 mph - N/A   Clear
5:52 AM 35.1 °F 28.6 °F 32.0 °F 89% 30.32 in 5.0 mi SSE 8.1 mph - N/A   Clear
6:52 AM 34.0 °F 27.2 °F 30.9 °F 89% 30.32 in 5.0 mi SSE 8.1 mph - N/A   Clear
7:52 AM 35.1 °F 28.6 °F 32.0 °F 89% 30.32 in 5.0 mi SE 8.1 mph - N/A   Clear
8:52 AM 39.0 °F 31.8 °F 32.0 °F 76% 30.31 in 6.0 mi SSE 11.5 mph - N/A   Haze
9:52 AM 43.0 °F 37.2 °F 32.0 °F 65% 30.31 in 7.0 mi SSE 10.4 mph - N/A   Clear
10:52 AM 46.9 °F - 33.1 °F 59% 30.31 in 8.0 mi South 12.7 mph - N/A   Clear
11:52 AM 48.9 °F - 34.0 °F 56% 30.29 in 9.0 mi SSE 11.5 mph - N/A   Clear
12:52 PM 55.0 °F - 33.1 °F 43% 30.26 in 10.0 mi SSE 13.8 mph - N/A   Clear
1:52 PM 55.9 °F - 33.1 °F 42% 30.25 in 10.0 mi SSE 11.5 mph - N/A   Clear
2:52 PM 57.0 °F - 33.1 °F 40% 30.23 in 10.0 mi SSE 12.7 mph - N/A   Clear
3:52 PM 53.1 °F - 32.0 °F 45% 30.23 in 10.0 mi SSE 10.4 mph - N/A   Clear
4:52 PM 48.9 °F - 33.1 °F 54% 30.24 in 10.0 mi SE 6.9 mph - N/A   Clear
5:52 PM 48.0 °F - 33.1 °F 56% 30.25 in 10.0 mi SSE 6.9 mph - N/A   Clear
6:52 PM 48.0 °F - 32.0 °F 54% 30.25 in 10.0 mi SSE 10.4 mph - N/A   Clear
7:52 PM 48.0 °F - 32.0 °F 54% 30.24 in 10.0 mi SSE 11.5 mph - N/A   Clear
8:52 PM 48.0 °F - 33.1 °F 56% 30.23 in 10.0 mi SSE 12.7 mph 19.6 mph N/A   Clear
9:52 PM 46.0 °F 40.6 °F 34.0 °F 63% 30.23 in 10.0 mi SSE 11.5 mph - N/A   Clear
10:52 PM 45.0 °F 39.7 °F 34.0 °F 65% 30.22 in 10.0 mi SSE 10.4 mph - N/A   Clear
11:52 PM 46.0 °F 41.0 °F 34.0 °F 63% 30.22 in 10.0 mi SSE 10.4 mph - N/A   Mostly Cloudy